Location: Unspecified
(43.4680°N, 87.1740°E)
Time: 16:50:13
(UTC+00:00)

Tiangong - Pass Details

Date: 26 September 2021
Orbit: 382 x 384 km, 41.5° (Epoch: 20 October)

Event Time Altitude Azimuth Distance (km) Brightness Sun altitude
Exits shadow 22:22:13 14° 166° (SSE) 1,184 3.5 -19.1°
Maximum altitude 22:22:53 15° 151° (SSE) 1,150 3.6 -18.9°
Drops below altitude 10° 22:24:44 10° 115° (ESE) 1,394 4.6 -18.6°
Sets 22:27:27 0° 90° (E) 2,257 6.4 -18.1°
